Location: Zagreb
(45.8000°N, 16.0000°E)
Time: 01:36:58
(UTC+02:00)

deb Explorer IX - All Passes

Search period start: 02 October 2020 00:00
Search period end: 12 October 2020 00:00
Orbit: 538 x 1105 km, 38.8° (Epoch: 01 October)

Date Brightness Start Highest point End Pass type
(mag) Time Alt. Az. Time Alt. Az. Time Alt. Az.
02 Oct - 15:38:38 10° S 15:41:06 13° SSE 15:43:25 10° SE daylight
02 Oct - 17:22:49 10° SW 17:27:16 28° SSE 17:31:13 10° ESE daylight
02 Oct - 19:09:12 10° WSW 19:13:32 34° S 19:17:25 10° ESE visible
02 Oct - 20:56:20 10° WSW 20:59:36 20° SSW 21:02:40 10° SSE visible
03 Oct - 15:15:07 10° S 15:17:57 14° SSE 15:20:36 10° ESE daylight
03 Oct - 16:59:29 10° SW 17:04:09 29° SSE 17:08:15 10° ESE daylight
03 Oct - 18:45:57 10° WSW 18:50:27 35° S 18:54:27 10° ESE daylight
03 Oct - 20:33:09 10° WSW 20:36:31 21° SSW 20:39:41 10° SSE visible
04 Oct - 14:51:36 10° S 14:54:47 15° SSE 14:57:44 10° ESE daylight
04 Oct - 16:36:08 10° SW 16:41:01 30° SSE 16:45:17 10° ESE daylight
04 Oct - 18:22:40 10° WSW 18:27:22 36° S 18:31:28 10° ESE daylight
04 Oct - 20:09:56 10° WSW 20:13:27 21° SSW 20:16:42 10° SSE visible
05 Oct - 14:28:06 10° S 14:31:36 16° SSE 14:34:51 10° ESE daylight
05 Oct - 16:12:47 10° SW 16:17:52 31° SSE 16:22:19 10° ESE daylight
05 Oct - 17:59:22 10° WSW 18:04:16 37° S 18:08:30 10° ESE daylight
05 Oct - 19:46:41 10° WSW 19:50:22 22° SSW 19:53:43 10° SSE visible
06 Oct - 14:04:37 10° S 14:08:24 16° SSE 14:11:55 10° ESE daylight
06 Oct - 15:49:24 10° SW 15:54:43 33° SSE 15:59:20 10° ESE daylight
06 Oct - 17:36:03 10° WSW 17:41:09 38° S 17:45:32 10° ESE daylight
06 Oct - 19:23:25 10° WSW 19:27:16 23° SSW 19:30:45 10° SSE visible
07 Oct - 13:41:09 10° S 13:45:12 17° SSE 13:48:57 10° ESE daylight
07 Oct - 15:26:01 10° SW 15:31:32 34° SSE 15:36:20 10° ESE daylight
07 Oct - 17:12:43 10° WSW 17:18:00 39° S 17:22:33 10° ESE daylight
07 Oct - 19:00:08 10° WSW 19:04:10 23° SSW 19:07:47 10° SSE visible
08 Oct - 13:17:40 10° SSW 13:21:58 18° SSE 13:25:57 10° ESE daylight
08 Oct - 15:02:37 10° SW 15:08:21 35° SSE 15:13:20 10° ESE daylight
08 Oct - 16:49:22 10° WSW 16:54:51 40° S 16:59:33 10° ESE daylight
08 Oct - 18:36:49 10° WSW 18:41:02 24° SSW 18:44:49 10° SSE daylight
09 Oct - 12:54:12 10° SSW 12:58:44 19° SSE 13:02:56 10° ESE daylight
09 Oct - 14:39:13 10° SW 14:45:08 36° SSE 14:50:18 10° ESE daylight
09 Oct - 16:26:00 10° WSW 16:31:41 41° S 16:36:33 10° ESE daylight
09 Oct - 18:13:29 10° WSW 18:17:54 25° SSW 18:21:50 10° SSE daylight
10 Oct - 12:30:45 10° SSW 12:35:28 19° SSE 12:39:53 10° ESE daylight
10 Oct - 14:15:49 10° SW 14:21:54 37° SSE 14:27:15 10° ESE daylight
10 Oct - 16:02:37 10° WSW 16:08:30 42° S 16:13:32 10° ESE daylight
10 Oct - 17:50:07 10° WSW 17:54:45 26° SSW 17:58:51 10° SSE daylight
11 Oct - 12:07:18 10° SSW 12:12:12 20° SSE 12:16:48 10° ESE daylight
11 Oct - 13:52:24 10° SW 13:58:39 38° SSE 14:04:11 10° ESE daylight
11 Oct - 15:39:13 10° WSW 15:45:17 43° S 15:50:31 10° ESE daylight
11 Oct - 17:26:45 10° WSW 17:31:36 27° SSW 17:35:51 10° SSE daylight
